Location: Peebles
(55.6412°N, 3.1714°W)
Time: 08:43:20
(UTC+01:00)

Cosmos 1315 Rocket - Pass Details

Date: 26 September 2021
Orbit: 529 x 567 km, 81.2° (Epoch: 20 October)

Event Time Altitude Azimuth Distance (km) Brightness Sun altitude
Rises 20:35:23 0° 182° (S) 2,696 6.2 -14.0°
Reaches altitude 10° 20:37:32 10° 179° (S) 1,814 5.3 -14.3°
Maximum altitude 20:41:28 60° 100° (E) 638 2.8 -14.8°
Drops below altitude 10° 20:45:29 10° 20° (NNE) 1,852 5.5 -15.4°
Sets 20:47:42 0° 17° (NNE) 2,759 6.4 -15.6°
